Time,TemperatureF,DewpointF,PressureIn,WindDirection,WindDirectionDegrees,WindSpeedMPH,WindSpeedGustMPH,Humidity,HourlyPrecipIn,Conditions,Clouds,dailyrainin,SoftwareType,DateUTC
2013-07-03 00:01:00,72.0,69.4,30.07,South,180,0.0,2.0,92,0.00,,,0.21,meteohub,2013-07-03 04:01:00,
2013-07-03 00:03:00,72.0,69.4,30.07,SSE,158,0.0,2.0,92,0.00,,,0.21,meteohub,2013-07-03 04:03:00,
2013-07-03 00:04:00,72.0,69.4,30.07,SSE,158,4.0,4.0,92,0.00,,,0.21,meteohub,2013-07-03 04:04:00,
2013-07-03 00:09:00,72.0,69.8,30.07,South,180,1.0,4.0,93,0.00,,,0.00,meteohub,2013-07-03 04:09:00,
2013-07-03 00:12:00,72.0,69.8,30.07,SW,225,0.0,4.0,93,0.00,,,0.00,meteohub,2013-07-03 04:12:00,
2013-07-03 00:17:00,71.8,69.6,30.07,South,180,1.0,4.0,93,0.00,,,0.00,meteohub,2013-07-03 04:17:00,
2013-07-03 00:22:00,71.8,69.6,30.07,South,180,0.0,4.0,93,0.00,,,0.00,meteohub,2013-07-03 04:22:00,
2013-07-03 00:27:00,71.8,69.6,30.04,SSE,158,0.0,3.0,93,0.00,,,0.00,meteohub,2013-07-03 04:27:00,
2013-07-03 00:32:00,71.6,69.4,30.04,SSE,158,0.0,5.0,93,0.00,,,0.00,meteohub,2013-07-03 04:32:00,
2013-07-03 00:33:00,71.6,69.4,30.04,SW,225,2.0,5.0,93,0.00,,,0.00,meteohub,2013-07-03 04:33:00,
2013-07-03 00:38:00,71.6,69.4,30.04,SW,225,1.0,5.0,93,0.00,,,0.00,meteohub,2013-07-03 04:38:00,
2013-07-03 00:43:00,71.6,69.4,30.07,SSE,158,0.0,5.0,93,0.00,,,0.00,meteohub,2013-07-03 04:43:00,
2013-07-03 00:45:00,71.4,69.6,30.07,South,180,0.0,2.0,94,0.00,,,0.00,meteohub,2013-07-03 04:45:00,
2013-07-03 00:48:00,71.4,69.6,30.07,SSE,158,1.0,2.0,94,0.00,,,0.00,meteohub,2013-07-03 04:48:00,
2013-07-03 00:53:00,71.4,69.6,30.07,SW,225,2.0,3.0,94,0.00,,,0.00,meteohub,2013-07-03 04:53:00,
2013-07-03 00:55:00,71.4,69.6,30.07,SSW,202,0.0,3.0,94,0.00,,,0.00,meteohub,2013-07-03 04:55:00,
2013-07-03 01:00:00,71.4,69.6,30.07,SSE,158,0.0,3.0,94,0.00,,,0.00,meteohub,2013-07-03 05:00:00,
2013-07-03 01:05:00,71.4,69.6,30.07,SSW,202,0.0,2.0,94,0.00,,,0.00,meteohub,2013-07-03 05:05:00,
2013-07-03 01:08:00,71.2,69.4,30.07,SSW,202,0.0,2.0,94,0.00,,,0.00,meteohub,2013-07-03 05:08:00,
2013-07-03 01:13:00,71.2,69.4,30.07,SSE,158,0.0,2.0,94,0.00,,,0.00,meteohub,2013-07-03 05:13:00,
2013-07-03 01:18:00,71.2,69.4,30.07,SSE,158,0.0,2.0,94,0.00,,,0.00,meteohub,2013-07-03 05:18:00,
2013-07-03 01:19:00,71.2,69.4,30.07,SSE,158,0.0,2.0,94,0.00,,,0.00,meteohub,2013-07-03 05:19:00,
2013-07-03 01:24:00,71.1,69.3,30.07,South,180,1.0,3.0,94,0.00,,,0.00,meteohub,2013-07-03 05:24:00,
2013-07-03 01:30:00,71.1,69.3,30.07,WNW,292,4.0,4.0,94,0.00,,,0.00,meteohub,2013-07-03 05:30:00,
2013-07-03 01:35:00,71.1,69.3,30.07,SSW,202,0.0,4.0,94,0.00,,,0.00,meteohub,2013-07-03 05:35:00,
2013-07-03 01:41:00,71.1,69.3,30.07,SSW,202,2.0,4.0,94,0.00,,,0.00,meteohub,2013-07-03 05:41:00,
2013-07-03 01:46:00,71.1,69.3,30.07,SSE,158,0.0,3.0,94,0.00,,,0.00,meteohub,2013-07-03 05:46:00,
2013-07-03 01:51:00,71.1,69.3,30.07,SSE,158,0.0,2.0,94,0.00,,,0.00,meteohub,2013-07-03 05:51:00,
2013-07-03 01:54:00,71.1,69.3,30.07,South,180,0.0,2.0,94,0.00,,,0.00,meteohub,2013-07-03 05:54:00,
2013-07-03 01:57:00,71.1,69.3,30.07,SSW,202,1.0,2.0,94,0.00,,,0.00,meteohub,2013-07-03 05:57:00,
2013-07-03 01:58:00,71.1,69.3,30.07,SSW,202,1.0,2.0,94,0.00,,,0.00,meteohub,2013-07-03 05:58:00,
2013-07-03 02:02:00,71.1,69.3,30.07,West,270,0.0,1.0,94,0.00,,,0.00,meteohub,2013-07-03 06:02:00,
2013-07-03 02:07:00,71.1,69.3,30.07,SSE,158,3.0,3.0,94,0.00,,,0.00,meteohub,2013-07-03 06:07:00,
2013-07-03 02:12:00,71.1,69.3,30.04,SSE,158,0.0,3.0,94,0.00,,,0.00,meteohub,2013-07-03 06:12:00,
2013-07-03 02:16:00,71.1,69.3,30.04,SW,225,2.0,3.0,94,0.00,,,0.00,meteohub,2013-07-03 06:16:00,
2013-07-03 02:18:00,70.9,69.1,30.04,SSE,158,0.0,3.0,94,0.00,,,0.00,meteohub,2013-07-03 06:18:00,
2013-07-03 02:22:00,70.9,69.1,30.04,SW,225,0.0,3.0,94,0.00,,,0.00,meteohub,2013-07-03 06:22:00,
2013-07-03 02:24:00,70.9,69.1,30.04,SSE,158,0.0,3.0,94,0.00,,,0.00,meteohub,2013-07-03 06:24:00,
2013-07-03 02:28:00,70.9,69.1,30.07,SE,135,0.0,2.0,94,0.00,,,0.00,meteohub,2013-07-03 06:28:00,
2013-07-03 02:33:00,70.9,69.1,30.07,SE,135,0.0,2.0,94,0.00,,,0.00,meteohub,2013-07-03 06:33:00,
2013-07-03 02:34:00,70.9,69.1,30.07,SE,135,0.0,2.0,94,0.00,,,0.00,meteohub,2013-07-03 06:34:00,
2013-07-03 02:39:00,70.9,69.1,30.10,SSE,158,3.0,3.0,94,0.00,,,0.00,meteohub,2013-07-03 06:39:00,
2013-07-03 02:44:00,70.9,69.1,30.10,SSE,158,0.0,0.0,94,0.00,,,0.00,meteohub,2013-07-03 06:44:00,
2013-07-03 02:49:00,70.9,69.1,30.10,SSE,158,0.0,4.0,94,0.00,,,0.00,meteohub,2013-07-03 06:49:00,
2013-07-03 02:53:00,70.7,68.9,30.07,South,180,1.0,4.0,94,0.00,,,0.00,meteohub,2013-07-03 06:53:00,
2013-07-03 02:55:00,70.9,69.1,30.07,South,180,0.0,4.0,94,0.00,,,0.00,meteohub,2013-07-03 06:55:00,
2013-07-03 03:01:00,70.9,69.1,30.07,SSW,202,2.0,4.0,94,0.00,,,0.00,meteohub,2013-07-03 07:01:00,
2013-07-03 03:06:00,70.9,69.1,30.07,South,180,1.0,6.0,94,0.00,,,0.00,meteohub,2013-07-03 07:06:00,
2013-07-03 03:11:00,70.9,69.4,30.07,South,180,1.0,6.0,95,0.00,,,0.00,meteohub,2013-07-03 07:11:00,
2013-07-03 03:16:00,70.9,69.4,30.07,SSE,158,0.0,4.0,95,0.00,,,0.00,meteohub,2013-07-03 07:16:00,
2013-07-03 03:21:00,70.9,69.4,30.07,SSE,158,0.0,4.0,95,0.00,,,0.00,meteohub,2013-07-03 07:21:00,
2013-07-03 03:26:00,70.9,69.4,30.07,SW,225,3.0,4.0,95,0.00,,,0.00,meteohub,2013-07-03 07:26:00,
2013-07-03 03:31:00,70.9,69.4,30.07,SSW,202,0.0,4.0,95,0.00,,,0.00,meteohub,2013-07-03 07:31:00,
2013-07-03 03:36:00,70.9,69.4,30.07,SSE,158,1.0,3.0,95,0.00,,,0.00,meteohub,2013-07-03 07:36:00,
2013-07-03 03:38:00,70.9,69.4,30.07,SSE,158,0.0,3.0,95,0.00,,,0.00,meteohub,2013-07-03 07:38:00,
2013-07-03 03:43:00,70.9,69.4,30.07,SSE,158,1.0,3.0,95,0.00,,,0.00,meteohub,2013-07-03 07:43:00,
2013-07-03 03:48:00,70.9,69.4,30.07,South,180,2.0,3.0,95,0.00,,,0.00,meteohub,2013-07-03 07:48:00,
2013-07-03 03:50:00,70.9,69.4,30.07,SSE,158,2.0,4.0,95,0.00,,,0.00,meteohub,2013-07-03 07:50:00,
2013-07-03 03:55:00,70.9,69.4,30.07,SE,135,2.0,4.0,95,0.00,,,0.00,meteohub,2013-07-03 07:55:00,
2013-07-03 04:00:00,70.9,69.4,30.07,SSE,158,0.0,4.0,95,0.00,,,0.00,meteohub,2013-07-03 08:00:00,
2013-07-03 04:01:00,70.9,69.4,30.07,SSE,158,0.0,4.0,95,0.00,,,0.00,meteohub,2013-07-03 08:01:00,
2013-07-03 04:06:00,70.9,69.4,30.07,SSE,158,0.0,4.0,95,0.00,,,0.00,meteohub,2013-07-03 08:06:00,
2013-07-03 04:09:00,70.9,69.4,30.07,SSE,158,0.0,4.0,95,0.00,,,0.00,meteohub,2013-07-03 08:09:00,
2013-07-03 04:14:00,70.9,69.4,30.07,South,180,1.0,3.0,95,0.00,,,0.00,meteohub,2013-07-03 08:14:00,
2013-07-03 04:17:00,71.1,69.6,30.07,SSE,158,1.0,3.0,95,0.00,,,0.00,meteohub,2013-07-03 08:17:00,
2013-07-03 04:18:00,71.1,69.6,30.07,SSE,158,0.0,3.0,95,0.00,,,0.00,meteohub,2013-07-03 08:18:00,
2013-07-03 04:24:00,71.1,69.6,30.07,SSE,158,2.0,4.0,95,0.00,,,0.00,meteohub,2013-07-03 08:24:00,
2013-07-03 04:29:00,71.1,69.6,30.07,SSE,158,2.0,4.0,95,0.00,,,0.00,meteohub,2013-07-03 08:29:00,
2013-07-03 04:34:00,71.1,69.6,30.07,SSW,202,4.0,4.0,95,0.00,,,0.00,meteohub,2013-07-03 08:34:00,
2013-07-03 04:39:00,71.1,69.6,30.07,South,180,1.0,2.0,95,0.00,,,0.00,meteohub,2013-07-03 08:39:00,
2013-07-03 04:44:00,71.1,69.6,30.07,South,180,0.0,4.0,95,0.00,,,0.00,meteohub,2013-07-03 08:44:00,
2013-07-03 04:47:00,71.1,69.6,30.07,SSE,158,0.0,4.0,95,0.00,,,0.00,meteohub,2013-07-03 08:47:00,
2013-07-03 04:52:00,71.1,69.6,30.07,SSE,158,0.0,2.0,95,0.00,,,0.00,meteohub,2013-07-03 08:52:00,
2013-07-03 04:55:00,71.1,69.6,30.10,SSE,158,1.0,2.0,95,0.00,,,0.00,meteohub,2013-07-03 08:55:00,
2013-07-03 04:58:00,71.1,69.6,30.10,SE,135,1.0,2.0,95,0.00,,,0.00,meteohub,2013-07-03 08:58:00,
2013-07-03 05:03:00,71.1,69.6,30.10,South,180,0.0,3.0,95,0.00,,,0.00,meteohub,2013-07-03 09:03:00,
2013-07-03 05:08:00,71.1,69.6,30.10,SE,135,5.0,5.0,95,0.00,,,0.00,meteohub,2013-07-03 09:08:00,
2013-07-03 05:13:00,71.1,69.6,30.07,SSE,158,0.0,3.0,95,0.00,,,0.00,meteohub,2013-07-03 09:13:00,
2013-07-03 05:18:00,71.1,69.6,30.07,SSE,158,2.0,5.0,95,0.00,,,0.00,meteohub,2013-07-03 09:18:00,
2013-07-03 05:24:00,70.9,69.4,30.10,SSE,158,2.0,5.0,95,0.00,,,0.00,meteohub,2013-07-03 09:24:00,
2013-07-03 05:29:00,70.9,69.4,30.10,SSE,158,2.0,4.0,95,0.00,,,0.00,meteohub,2013-07-03 09:29:00,
2013-07-03 05:34:00,70.9,69.4,30.10,SSE,158,2.0,4.0,95,0.00,,,0.00,meteohub,2013-07-03 09:34:00,
2013-07-03 05:39:00,70.9,69.4,30.10,South,180,0.0,4.0,95,0.00,,,0.00,meteohub,2013-07-03 09:39:00,
2013-07-03 05:41:00,70.9,69.4,30.10,SSE,158,0.0,5.0,95,0.00,,,0.00,meteohub,2013-07-03 09:41:00,
2013-07-03 05:46:00,70.9,69.4,30.10,SSE,158,1.0,5.0,95,0.00,,,0.00,meteohub,2013-07-03 09:46:00,
2013-07-03 05:49:00,70.9,69.4,30.10,SSE,158,0.0,5.0,95,0.00,,,0.00,meteohub,2013-07-03 09:49:00,
2013-07-03 05:50:00,70.9,69.4,30.10,SSE,158,0.0,5.0,95,0.00,,,0.00,meteohub,2013-07-03 09:50:00,
2013-07-03 05:55:00,70.7,69.3,30.10,SSE,158,0.0,4.0,95,0.00,,,0.00,meteohub,2013-07-03 09:55:00,
2013-07-03 06:00:00,70.7,69.3,30.10,SSE,158,0.0,4.0,95,0.00,,,0.00,meteohub,2013-07-03 10:00:00,
2013-07-03 06:04:00,70.7,69.3,30.10,SSW,202,0.0,4.0,95,0.00,,,0.00,meteohub,2013-07-03 10:04:00,
2013-07-03 06:07:00,70.7,69.3,30.10,SE,135,0.0,0.0,95,0.00,,,0.00,meteohub,2013-07-03 10:07:00,
2013-07-03 06:12:00,70.7,69.3,30.10,SE,135,0.0,0.0,95,0.00,,,0.00,meteohub,2013-07-03 10:12:00,
2013-07-03 06:18:00,70.9,69.4,30.10,ESE,112,0.0,0.0,95,0.00,,,0.00,meteohub,2013-07-03 10:18:00,
2013-07-03 06:23:00,70.9,69.4,30.10,SSE,158,0.0,2.0,95,0.00,,,0.00,meteohub,2013-07-03 10:23:00,
2013-07-03 06:28:00,71.1,69.6,30.13,SSE,158,1.0,2.0,95,0.00,,,0.00,meteohub,2013-07-03 10:28:00,
2013-07-03 06:31:00,71.1,69.6,30.13,SE,135,0.0,2.0,95,0.00,,,0.00,meteohub,2013-07-03 10:31:00,
2013-07-03 06:36:00,71.1,69.6,30.13,SSE,158,0.0,2.0,95,0.00,,,0.00,meteohub,2013-07-03 10:36:00,
2013-07-03 06:41:00,71.2,69.8,30.13,SE,135,2.0,2.0,95,0.00,,,0.00,meteohub,2013-07-03 10:41:00,
2013-07-03 06:46:00,71.2,69.8,30.13,SSW,202,2.0,2.0,95,0.00,,,0.00,meteohub,2013-07-03 10:46:00,
2013-07-03 06:50:00,71.2,69.8,30.13,SW,225,2.0,2.0,95,0.00,,,0.00,meteohub,2013-07-03 10:50:00,
2013-07-03 06:56:00,71.2,69.8,30.13,SW,225,2.0,3.0,95,0.00,,,0.00,meteohub,2013-07-03 10:56:00,
2013-07-03 06:57:00,71.2,69.8,30.13,SW,225,0.0,3.0,95,0.00,,,0.00,meteohub,2013-07-03 10:57:00,
2013-07-03 06:59:00,71.2,69.8,30.13,SSE,158,0.0,3.0,95,0.00,,,0.00,meteohub,2013-07-03 10:59:00,
2013-07-03 07:04:00,71.4,70.0,30.13,SSW,202,0.0,3.0,95,0.00,,,0.00,meteohub,2013-07-03 11:04:00,
2013-07-03 07:08:00,71.4,70.2,30.13,SW,225,0.0,3.0,96,0.00,,,0.00,meteohub,2013-07-03 11:08:00,
2013-07-03 07:10:00,71.4,70.2,30.13,SSW,202,0.0,3.0,96,0.00,,,0.00,meteohub,2013-07-03 11:10:00,
2013-07-03 07:15:00,71.6,70.2,30.13,SSW,202,0.0,3.0,95,0.00,,,0.00,meteohub,2013-07-03 11:15:00,
2013-07-03 07:19:00,71.6,70.2,30.13,WSW,248,0.0,3.0,95,0.00,,,0.00,meteohub,2013-07-03 11:19:00,
2013-07-03 07:24:00,71.8,70.3,30.13,South,180,0.0,3.0,95,0.00,,,0.00,meteohub,2013-07-03 11:24:00,
2013-07-03 07:25:00,71.8,70.3,30.13,South,180,0.0,2.0,95,0.00,,,0.00,meteohub,2013-07-03 11:25:00,
2013-07-03 07:30:00,72.0,70.5,30.13,SSE,158,0.0,2.0,95,0.00,,,0.00,meteohub,2013-07-03 11:30:00,
2013-07-03 07:35:00,72.1,70.7,30.13,SW,225,0.0,3.0,95,0.00,,,0.00,meteohub,2013-07-03 11:35:00,
2013-07-03 07:40:00,72.1,70.7,30.13,SSE,158,0.0,3.0,95,0.00,,,0.00,meteohub,2013-07-03 11:40:00,
2013-07-03 07:45:00,72.3,71.1,30.13,SSE,158,3.0,4.0,96,0.00,,,0.00,meteohub,2013-07-03 11:45:00,
2013-07-03 07:50:00,72.5,71.1,30.13,West,270,0.0,4.0,95,0.00,,,0.00,meteohub,2013-07-03 11:50:00,
2013-07-03 07:55:00,72.7,71.2,30.13,SSW,202,0.0,3.0,95,0.00,,,0.00,meteohub,2013-07-03 11:55:00,
2013-07-03 07:59:00,72.7,71.2,30.13,SSW,202,2.0,3.0,95,0.00,,,0.00,meteohub,2013-07-03 11:59:00,
2013-07-03 08:02:00,72.7,71.2,30.13,SSE,158,0.0,2.0,95,0.00,,,0.00,meteohub,2013-07-03 12:02:00,
2013-07-03 08:08:00,72.9,71.4,30.13,SE,135,1.0,2.0,95,0.00,,,0.00,meteohub,2013-07-03 12:08:00,
2013-07-03 08:12:00,73.0,71.6,30.13,SSW,202,1.0,4.0,95,0.00,,,0.00,meteohub,2013-07-03 12:12:00,
2013-07-03 08:17:00,73.0,71.6,30.13,SW,225,2.0,4.0,95,0.00,,,0.00,meteohub,2013-07-03 12:17:00,
2013-07-03 08:20:00,73.0,71.6,30.13,South,180,4.0,4.0,95,0.00,,,0.00,meteohub,2013-07-03 12:20:00,
2013-07-03 08:23:00,73.2,71.8,30.13,West,270,2.0,3.0,95,0.00,,,0.00,meteohub,2013-07-03 12:23:00,
2013-07-03 08:28:00,73.4,71.6,30.13,WSW,248,2.0,4.0,94,0.00,,,0.00,meteohub,2013-07-03 12:28:00,
2013-07-03 08:33:00,73.4,71.6,30.13,SSW,202,4.0,4.0,94,0.00,,,0.00,meteohub,2013-07-03 12:33:00,
2013-07-03 08:38:00,73.4,71.2,30.13,SSE,158,4.0,4.0,93,0.00,,,0.00,meteohub,2013-07-03 12:38:00,
2013-07-03 08:43:00,73.6,71.4,30.10,South,180,1.0,4.0,93,0.00,,,0.00,meteohub,2013-07-03 12:43:00,
2013-07-03 08:46:00,73.6,71.4,30.10,SSE,158,0.0,5.0,93,0.00,,,0.00,meteohub,2013-07-03 12:46:00,
2013-07-03 08:51:00,73.9,71.8,30.10,SSE,158,0.0,5.0,93,0.00,,,0.00,meteohub,2013-07-03 12:51:00,
2013-07-03 08:57:00,73.9,71.8,30.10,SSE,158,1.0,3.0,93,0.00,,,0.00,meteohub,2013-07-03 12:57:00,
2013-07-03 09:02:00,74.1,72.0,30.10,SW,225,0.0,4.0,93,0.00,,,0.00,meteohub,2013-07-03 13:02:00,
2013-07-03 09:07:00,74.3,71.8,30.10,SSW,202,3.0,4.0,92,0.00,,,0.00,meteohub,2013-07-03 13:07:00,
2013-07-03 09:12:00,74.3,71.8,30.13,SSE,158,2.0,4.0,92,0.00,,,0.00,meteohub,2013-07-03 13:12:00,
2013-07-03 09:17:00,74.3,71.8,30.13,SSW,202,3.0,4.0,92,0.00,,,0.00,meteohub,2013-07-03 13:17:00,
2013-07-03 09:22:00,74.5,72.0,30.13,South,180,2.0,4.0,92,0.00,,,0.00,meteohub,2013-07-03 13:22:00,
2013-07-03 09:27:00,74.5,72.0,30.13,SW,225,1.0,3.0,92,0.00,,,0.00,meteohub,2013-07-03 13:27:00,
2013-07-03 09:30:00,74.7,72.1,30.13,SSW,202,0.0,3.0,92,0.00,,,0.00,meteohub,2013-07-03 13:30:00,
2013-07-03 09:35:00,74.7,72.1,30.13,SSE,158,1.0,3.0,92,0.00,,,0.00,meteohub,2013-07-03 13:35:00,
2013-07-03 09:40:00,75.0,72.5,30.13,SSW,202,3.0,4.0,92,0.00,,,0.00,meteohub,2013-07-03 13:40:00,
2013-07-03 09:45:00,75.0,72.5,30.13,SSE,158,1.0,4.0,92,0.00,,,0.00,meteohub,2013-07-03 13:45:00,
2013-07-03 09:50:00,75.2,72.3,30.13,SSE,158,3.0,4.0,91,0.00,,,0.00,meteohub,2013-07-03 13:50:00,
2013-07-03 09:55:00,75.2,72.3,30.13,SSE,158,0.0,6.0,91,0.00,,,0.00,meteohub,2013-07-03 13:55:00,
2013-07-03 10:00:00,75.4,72.5,30.13,SE,135,2.0,6.0,91,0.00,,,0.00,meteohub,2013-07-03 14:00:00,
2013-07-03 10:06:00,75.6,72.5,30.13,SSE,158,1.0,4.0,90,0.00,,,0.00,meteohub,2013-07-03 14:06:00,
2013-07-03 10:07:00,75.6,72.5,30.13,SSE,158,1.0,4.0,90,0.00,,,0.00,meteohub,2013-07-03 14:07:00,
2013-07-03 10:11:00,75.7,72.7,30.13,SSE,158,1.0,4.0,90,0.00,,,0.00,meteohub,2013-07-03 14:11:00,
2013-07-03 10:16:00,75.9,72.9,30.13,WSW,248,2.0,3.0,90,0.00,,,0.00,meteohub,2013-07-03 14:16:00,
2013-07-03 10:18:00,76.1,72.9,30.13,West,270,0.0,3.0,90,0.00,,,0.00,meteohub,2013-07-03 14:18:00,
2013-07-03 10:23:00,76.3,73.0,30.13,South,180,1.0,3.0,90,0.00,,,0.00,meteohub,2013-07-03 14:23:00,
2013-07-03 10:29:00,76.5,73.2,30.13,SSW,202,0.0,3.0,90,0.00,,,0.00,meteohub,2013-07-03 14:29:00,
2013-07-03 10:31:00,76.8,73.4,30.13,SSW,202,2.0,3.0,89,0.00,,,0.00,meteohub,2013-07-03 14:31:00,
2013-07-03 10:37:00,77.0,73.6,30.13,NNW,338,0.0,3.0,89,0.00,,,0.00,meteohub,2013-07-03 14:37:00,
2013-07-03 10:39:00,77.0,73.6,30.13,NW,315,2.0,3.0,89,0.00,,,0.00,meteohub,2013-07-03 14:39:00,
2013-07-03 10:43:00,77.0,73.2,30.13,SSW,202,0.0,2.0,88,0.00,,,0.00,meteohub,2013-07-03 14:43:00,
2013-07-03 10:48:00,77.2,73.0,30.13,SE,135,2.0,4.0,87,0.00,,,0.00,meteohub,2013-07-03 14:48:00,
2013-07-03 10:51:00,77.5,73.8,30.13,WNW,292,2.0,4.0,88,0.00,,,0.00,meteohub,2013-07-03 14:51:00,
2013-07-03 10:56:00,78.1,74.5,30.13,ENE,68,2.0,4.0,89,0.00,,,0.00,meteohub,2013-07-03 14:56:00,
2013-07-03 10:58:00,78.3,74.7,30.13,East,90,0.0,4.0,89,0.00,,,0.00,meteohub,2013-07-03 14:58:00,
2013-07-03 11:03:00,78.4,73.9,30.13,WNW,292,2.0,3.0,86,0.00,,,0.00,meteohub,2013-07-03 15:03:00,
2013-07-03 11:04:00,78.8,73.6,30.13,SSW,202,2.0,3.0,84,0.00,,,0.00,meteohub,2013-07-03 15:04:00,
2013-07-03 11:07:00,79.0,72.7,30.13,SW,225,1.0,4.0,81,0.00,,,0.00,meteohub,2013-07-03 15:07:00,
2013-07-03 11:12:00,79.9,73.6,30.13,WSW,248,3.0,4.0,81,0.00,,,0.00,meteohub,2013-07-03 15:12:00,
2013-07-03 11:15:00,79.9,72.3,30.13,South,180,3.0,6.0,78,0.00,,,0.00,meteohub,2013-07-03 15:15:00,
2013-07-03 11:20:00,79.9,72.3,30.13,West,270,2.0,6.0,78,0.00,,,0.00,meteohub,2013-07-03 15:20:00,
2013-07-03 11:26:00,79.7,72.7,30.13,WNW,292,5.0,6.0,79,0.00,,,0.00,meteohub,2013-07-03 15:26:00,
2013-07-03 11:28:00,79.7,72.7,30.13,West,270,3.0,6.0,79,0.00,,,0.00,meteohub,2013-07-03 15:28:00,
2013-07-03 11:33:00,79.5,72.5,30.13,WNW,292,4.0,6.0,79,0.00,,,0.00,meteohub,2013-07-03 15:33:00,
2013-07-03 11:38:00,79.0,72.3,30.13,NW,315,4.0,6.0,80,0.00,,,0.00,meteohub,2013-07-03 15:38:00,
2013-07-03 11:40:00,79.0,72.3,30.13,NW,315,1.0,6.0,80,0.00,,,0.00,meteohub,2013-07-03 15:40:00,
2013-07-03 11:45:00,78.8,72.9,30.13,WNW,292,0.0,6.0,82,0.00,,,0.00,meteohub,2013-07-03 15:45:00,
2013-07-03 11:50:00,78.6,73.0,30.13,WSW,248,2.0,5.0,83,0.00,,,0.00,meteohub,2013-07-03 15:50:00,
2013-07-03 11:52:00,78.6,73.0,30.13,West,270,5.0,5.0,83,0.00,,,0.00,meteohub,2013-07-03 15:52:00,
2013-07-03 11:53:00,78.8,73.2,30.13,WNW,292,2.0,5.0,83,0.00,,,0.00,meteohub,2013-07-03 15:53:00,
2013-07-03 11:57:00,79.0,73.8,30.13,WSW,248,1.0,5.0,84,0.00,,,0.00,meteohub,2013-07-03 15:57:00,
2013-07-03 12:02:00,79.3,73.8,30.13,SW,225,6.0,6.0,83,0.00,,,0.00,meteohub,2013-07-03 16:02:00,
2013-07-03 12:07:00,79.5,72.5,30.13,SW,225,1.0,6.0,79,0.00,,,0.00,meteohub,2013-07-03 16:07:00,
2013-07-03 12:12:00,80.1,74.1,30.13,South,180,2.0,6.0,82,0.00,,,0.00,meteohub,2013-07-03 16:12:00,
2013-07-03 12:17:00,80.1,72.5,30.13,SSE,158,4.0,6.0,78,0.00,,,0.00,meteohub,2013-07-03 16:17:00,
2013-07-03 12:22:00,80.1,73.0,30.13,SE,135,4.0,6.0,79,0.00,,,0.00,meteohub,2013-07-03 16:22:00,
2013-07-03 12:27:00,79.9,72.9,30.13,SW,225,5.0,6.0,79,0.00,,,0.00,meteohub,2013-07-03 16:27:00,
2013-07-03 12:32:00,79.9,72.9,30.13,SSE,158,4.0,6.0,79,0.00,,,0.00,meteohub,2013-07-03 16:32:00,
2013-07-03 12:37:00,80.4,73.8,30.13,SSE,158,1.0,6.0,80,0.00,,,0.00,meteohub,2013-07-03 16:37:00,
2013-07-03 12:42:00,80.8,73.2,30.13,WSW,248,2.0,6.0,78,0.00,,,0.00,meteohub,2013-07-03 16:42:00,
2013-07-03 12:47:00,81.1,73.2,30.13,SSW,202,4.0,8.0,77,0.00,,,0.00,meteohub,2013-07-03 16:47:00,
2013-07-03 12:52:00,81.7,72.5,30.13,ENE,68,5.0,10.0,74,0.00,,,0.00,meteohub,2013-07-03 16:52:00,
2013-07-03 12:57:00,82.2,73.9,30.10,ESE,112,3.0,10.0,76,0.00,,,0.00,meteohub,2013-07-03 16:57:00,
2013-07-03 13:02:00,82.2,72.3,30.10,WSW,248,4.0,10.0,72,0.00,,,0.00,meteohub,2013-07-03 17:02:00,
2013-07-03 13:08:00,82.0,72.5,30.10,SSW,202,4.0,6.0,73,0.00,,,0.00,meteohub,2013-07-03 17:08:00,
2013-07-03 13:13:00,81.7,72.5,30.13,NW,315,3.0,6.0,74,0.00,,,0.00,meteohub,2013-07-03 17:13:00,
2013-07-03 13:18:00,81.7,73.0,30.13,NW,315,4.0,6.0,75,0.00,,,0.00,meteohub,2013-07-03 17:18:00,
2013-07-03 13:23:00,81.5,72.9,30.13,West,270,4.0,6.0,75,0.00,,,0.00,meteohub,2013-07-03 17:23:00,
2013-07-03 13:28:00,81.5,72.9,30.10,SW,225,2.0,6.0,75,0.00,,,0.00,meteohub,2013-07-03 17:28:00,
2013-07-03 13:34:00,81.5,71.6,30.10,SSW,202,2.0,6.0,72,0.00,,,0.00,meteohub,2013-07-03 17:34:00,
2013-07-03 13:39:00,82.0,72.1,30.10,South,180,1.0,4.0,72,0.00,,,0.00,meteohub,2013-07-03 17:39:00,
2013-07-03 13:44:00,82.2,71.1,30.10,SW,225,4.0,5.0,69,0.00,,,0.00,meteohub,2013-07-03 17:44:00,
2013-07-03 13:49:00,82.4,71.2,30.10,WSW,248,4.0,6.0,69,0.00,,,0.00,meteohub,2013-07-03 17:49:00,
2013-07-03 13:55:00,83.3,70.3,30.07,WNW,292,3.0,10.0,65,0.00,,,0.00,meteohub,2013-07-03 17:55:00,
2013-07-03 14:01:00,83.5,70.9,30.07,WSW,248,10.0,10.0,66,0.00,,,0.00,meteohub,2013-07-03 18:01:00,
2013-07-03 14:06:00,83.8,70.3,30.07,ESE,112,2.0,10.0,64,0.00,,,0.00,meteohub,2013-07-03 18:06:00,
2013-07-03 14:11:00,84.0,71.4,30.07,ENE,68,3.0,10.0,66,0.00,,,0.00,meteohub,2013-07-03 18:11:00,
2013-07-03 14:17:00,84.4,70.9,30.07,SSE,158,2.0,10.0,64,0.00,,,0.00,meteohub,2013-07-03 18:17:00,
2013-07-03 14:22:00,84.4,71.2,30.07,SW,225,3.0,8.0,65,0.00,,,0.00,meteohub,2013-07-03 18:22:00,
2013-07-03 14:27:00,84.6,70.2,30.07,SSW,202,2.0,8.0,62,0.00,,,0.00,meteohub,2013-07-03 18:27:00,
2013-07-03 14:32:00,84.7,71.2,30.07,SW,225,4.0,6.0,64,0.00,,,0.00,meteohub,2013-07-03 18:32:00,
2013-07-03 14:37:00,84.7,70.3,30.07,South,180,3.0,6.0,62,0.00,,,0.00,meteohub,2013-07-03 18:37:00,
2013-07-03 14:42:00,84.6,69.6,30.07,ESE,112,5.0,6.0,61,0.00,,,0.00,meteohub,2013-07-03 18:42:00,
2013-07-03 14:47:00,84.7,69.8,30.07,SSE,158,3.0,6.0,61,0.00,,,0.00,meteohub,2013-07-03 18:47:00,
2013-07-03 14:53:00,84.6,69.6,30.07,SE,135,2.0,6.0,61,0.00,,,0.00,meteohub,2013-07-03 18:53:00,
2013-07-03 14:58:00,84.0,69.6,30.07,South,180,4.0,6.0,62,0.00,,,0.00,meteohub,2013-07-03 18:58:00,
2013-07-03 15:04:00,84.0,69.6,30.07,SSE,158,3.0,6.0,62,0.00,,,0.00,meteohub,2013-07-03 19:04:00,
2013-07-03 15:09:00,84.0,70.0,30.07,South,180,4.0,7.0,63,0.00,,,0.00,meteohub,2013-07-03 19:09:00,
2013-07-03 15:14:00,83.7,69.8,30.07,SSW,202,2.0,7.0,63,0.00,,,0.00,meteohub,2013-07-03 19:14:00,
2013-07-03 15:19:00,83.5,70.0,30.07,WSW,248,2.0,7.0,64,0.00,,,0.00,meteohub,2013-07-03 19:19:00,
2013-07-03 15:24:00,83.3,70.7,30.07,SSE,158,3.0,6.0,66,0.00,,,0.00,meteohub,2013-07-03 19:24:00,
2013-07-03 15:29:00,83.1,71.1,30.07,NNW,338,1.0,6.0,67,0.00,,,0.00,meteohub,2013-07-03 19:29:00,
2013-07-03 15:34:00,82.9,70.9,30.07,NNW,338,2.0,5.0,67,0.00,,,0.00,meteohub,2013-07-03 19:34:00,
2013-07-03 15:39:00,82.4,70.7,30.07,NNW,338,2.0,5.0,68,0.00,,,0.00,meteohub,2013-07-03 19:39:00,
2013-07-03 15:45:00,82.0,71.2,30.07,ESE,112,1.0,6.0,70,0.00,,,0.00,meteohub,2013-07-03 19:45:00,
2013-07-03 15:50:00,81.9,71.1,30.07,SSE,158,1.0,6.0,70,0.00,,,0.00,meteohub,2013-07-03 19:50:00,
2013-07-03 15:55:00,82.2,71.4,30.07,SE,135,0.0,3.0,70,0.00,,,0.00,meteohub,2013-07-03 19:55:00,
2013-07-03 16:00:00,82.4,71.2,30.07,WSW,248,2.0,3.0,69,0.00,,,0.00,meteohub,2013-07-03 20:00:00,
2013-07-03 16:06:00,82.8,72.0,30.07,East,90,0.0,3.0,70,0.00,,,0.00,meteohub,2013-07-03 20:06:00,
2013-07-03 16:11:00,83.3,71.6,30.07,West,270,3.0,3.0,68,0.00,,,0.00,meteohub,2013-07-03 20:11:00,
2013-07-03 16:16:00,83.8,72.5,30.07,WNW,292,1.0,4.0,69,0.00,,,0.00,meteohub,2013-07-03 20:16:00,
2013-07-03 16:22:00,83.8,70.9,30.07,SSE,158,5.0,7.0,65,0.00,,,0.00,meteohub,2013-07-03 20:22:00,
2013-07-03 16:27:00,84.2,70.2,30.04,SE,135,4.0,7.0,63,0.00,,,0.00,meteohub,2013-07-03 20:27:00,
2013-07-03 16:32:00,84.2,69.8,30.04,SSW,202,9.0,9.0,62,0.00,,,0.00,meteohub,2013-07-03 20:32:00,
2013-07-03 16:37:00,83.8,68.5,30.04,SSE,158,2.0,12.0,60,0.00,,,0.00,meteohub,2013-07-03 20:37:00,
2013-07-03 16:42:00,83.8,68.9,30.07,SSE,158,9.0,12.0,61,0.00,,,0.00,meteohub,2013-07-03 20:42:00,
2013-07-03 16:47:00,83.8,69.4,30.07,SW,225,5.0,12.0,62,0.00,,,0.00,meteohub,2013-07-03 20:47:00,
2013-07-03 16:52:00,83.8,68.9,30.07,SSW,202,4.0,9.0,61,0.00,,,0.00,meteohub,2013-07-03 20:52:00,
2013-07-03 16:57:00,83.7,69.8,30.07,SSE,158,2.0,9.0,63,0.00,,,0.00,meteohub,2013-07-03 20:57:00,
2013-07-03 17:02:00,83.5,69.1,30.07,SSW,202,4.0,6.0,62,0.00,,,0.00,meteohub,2013-07-03 21:02:00,
2013-07-03 17:09:00,83.1,69.3,30.07,SSW,202,2.0,10.0,63,0.00,,,0.00,meteohub,2013-07-03 21:09:00,
2013-07-03 17:14:00,82.9,69.4,30.07,SW,225,1.0,10.0,64,0.00,,,0.00,meteohub,2013-07-03 21:14:00,
2013-07-03 17:19:00,82.9,70.0,30.07,SSW,202,2.0,6.0,65,0.00,,,0.00,meteohub,2013-07-03 21:19:00,
2013-07-03 17:25:00,82.9,70.0,30.07,West,270,1.0,6.0,65,0.00,,,0.00,meteohub,2013-07-03 21:25:00,
2013-07-03 17:30:00,82.8,70.2,30.07,WNW,292,2.0,5.0,66,0.00,,,0.00,meteohub,2013-07-03 21:30:00,
2013-07-03 17:35:00,82.4,70.3,30.07,SW,225,2.0,4.0,67,0.00,,,0.00,meteohub,2013-07-03 21:35:00,
2013-07-03 17:41:00,82.2,70.5,30.04,SW,225,1.0,4.0,68,0.00,,,0.00,meteohub,2013-07-03 21:41:00,
2013-07-03 17:46:00,82.0,70.3,30.04,WNW,292,2.0,3.0,68,0.00,,,0.00,meteohub,2013-07-03 21:46:00,
2013-07-03 17:52:00,81.7,71.4,30.04,NW,315,2.0,3.0,71,0.00,,,0.00,meteohub,2013-07-03 21:52:00,
2013-07-03 17:57:00,81.3,71.4,30.04,SW,225,1.0,5.0,72,0.00,,,0.00,meteohub,2013-07-03 21:57:00,
2013-07-03 18:02:00,81.1,71.6,30.04,West,270,1.0,5.0,73,0.00,,,0.00,meteohub,2013-07-03 22:02:00,
2013-07-03 18:07:00,81.0,71.4,30.04,NW,315,2.0,5.0,73,0.00,,,0.00,meteohub,2013-07-03 22:07:00,
2013-07-03 18:12:00,80.8,71.8,30.04,WNW,292,0.0,8.0,74,0.00,,,0.00,meteohub,2013-07-03 22:12:00,
2013-07-03 18:17:00,80.6,72.0,30.04,NW,315,3.0,8.0,75,0.00,,,0.00,meteohub,2013-07-03 22:17:00,
2013-07-03 18:22:00,80.2,72.3,30.04,WNW,292,3.0,8.0,77,0.00,,,0.00,meteohub,2013-07-03 22:22:00,
2013-07-03 18:28:00,80.1,72.1,30.07,SW,225,3.0,7.0,77,0.00,,,0.00,meteohub,2013-07-03 22:28:00,
2013-07-03 18:33:00,79.7,72.1,30.07,West,270,3.0,6.0,78,0.00,,,0.00,meteohub,2013-07-03 22:33:00,
2013-07-03 18:38:00,79.5,72.1,30.07,NW,315,4.0,6.0,78,0.00,,,0.00,meteohub,2013-07-03 22:38:00,
2013-07-03 18:43:00,79.2,71.8,30.04,SW,225,5.0,8.0,78,0.00,,,0.00,meteohub,2013-07-03 22:43:00,
2013-07-03 18:48:00,78.8,72.5,30.04,WNW,292,4.0,8.0,81,0.00,,,0.00,meteohub,2013-07-03 22:48:00,
2013-07-03 18:53:00,78.4,72.9,30.04,SSW,202,1.0,7.0,83,0.00,,,0.00,meteohub,2013-07-03 22:53:00,
2013-07-03 18:59:00,78.3,72.7,30.04,WSW,248,2.0,9.0,83,0.00,,,0.00,meteohub,2013-07-03 22:59:00,
2013-07-03 19:04:00,78.3,72.7,30.04,SSW,202,0.0,9.0,83,0.00,,,0.00,meteohub,2013-07-03 23:04:00,
2013-07-03 19:09:00,78.1,72.9,30.07,WNW,292,3.0,9.0,84,0.00,,,0.00,meteohub,2013-07-03 23:09:00,
2013-07-03 19:14:00,77.9,72.7,30.07,NNW,338,2.0,4.0,84,0.00,,,0.00,meteohub,2013-07-03 23:14:00,
2013-07-03 19:19:00,77.7,72.5,30.07,NW,315,3.0,4.0,84,0.08,,,0.08,meteohub,2013-07-03 23:19:00,
2013-07-03 19:25:00,77.5,72.3,30.07,WSW,248,6.0,6.0,84,0.08,,,0.08,meteohub,2013-07-03 23:25:00,
2013-07-03 19:30:00,77.5,73.4,30.07,SSW,202,0.0,4.0,87,0.12,,,0.12,meteohub,2013-07-03 23:30:00,
2013-07-03 19:35:00,77.2,73.4,30.07,West,270,2.0,6.0,88,0.20,,,0.20,meteohub,2013-07-03 23:35:00,
2013-07-03 19:40:00,77.2,73.4,30.07,SW,225,2.0,3.0,88,0.20,,,0.20,meteohub,2013-07-03 23:40:00,
2013-07-03 19:46:00,77.2,73.8,30.07,SW,225,1.0,3.0,89,0.25,,,0.25,meteohub,2013-07-03 23:46:00,
2013-07-03 19:51:00,77.0,73.6,30.07,WSW,248,1.0,3.0,89,0.25,,,0.25,meteohub,2013-07-03 23:51:00,
2013-07-03 19:56:00,77.0,73.6,30.07,WSW,248,1.0,3.0,89,0.25,,,0.25,meteohub,2013-07-03 23:56:00,
2013-07-03 20:01:00,77.0,73.6,30.07,SW,225,2.0,3.0,89,0.25,,,0.25,meteohub,2013-07-04 00:01:00,
2013-07-03 20:06:00,77.0,73.6,30.07,SW,225,0.0,3.0,89,0.25,,,0.25,meteohub,2013-07-04 00:06:00,
2013-07-03 20:11:00,77.0,73.6,30.07,WSW,248,0.0,3.0,89,0.21,,,0.25,meteohub,2013-07-04 00:11:00,
2013-07-03 20:16:00,77.0,73.6,30.07,West,270,0.0,3.0,89,0.17,,,0.25,meteohub,2013-07-04 00:16:00,
2013-07-03 20:21:00,77.0,73.6,30.07,West,270,0.0,1.0,89,0.13,,,0.25,meteohub,2013-07-04 00:21:00,
2013-07-03 20:27:00,76.8,73.6,30.07,West,270,0.0,0.0,90,0.05,,,0.25,meteohub,2013-07-04 00:27:00,
2013-07-03 20:32:00,76.8,73.6,30.07,NW,315,2.0,0.0,90,0.05,,,0.25,meteohub,2013-07-04 00:32:00,
2013-07-03 20:37:00,76.8,73.6,30.07,WNW,292,1.0,3.0,90,0.05,,,0.25,meteohub,2013-07-04 00:37:00,
2013-07-03 20:42:00,76.8,73.6,30.07,WSW,248,2.0,3.0,90,0.05,,,0.25,meteohub,2013-07-04 00:42:00,
2013-07-03 20:47:00,76.8,73.6,30.07,SSE,158,0.0,3.0,90,0.00,,,0.25,meteohub,2013-07-04 00:47:00,
2013-07-03 20:52:00,76.8,73.6,30.07,SE,135,0.0,3.0,90,0.00,,,0.25,meteohub,2013-07-04 00:52:00,
2013-07-03 20:58:00,76.6,73.4,30.07,SE,135,0.0,2.0,90,0.00,,,0.25,meteohub,2013-07-04 00:58:00,
2013-07-03 21:03:00,76.6,73.4,30.07,SE,135,0.0,0.0,90,0.00,,,0.25,meteohub,2013-07-04 01:03:00,
2013-07-03 21:08:00,76.6,73.4,30.07,SE,135,0.0,0.0,90,0.00,,,0.25,meteohub,2013-07-04 01:08:00,
2013-07-03 21:13:00,76.6,73.4,30.10,SE,135,0.0,0.0,90,0.00,,,0.25,meteohub,2013-07-04 01:13:00,
2013-07-03 21:18:00,76.6,73.8,30.10,SSE,158,0.0,0.0,91,0.00,,,0.25,meteohub,2013-07-04 01:18:00,
2013-07-03 21:24:00,76.6,73.8,30.10,SSE,158,2.0,0.0,91,0.00,,,0.25,meteohub,2013-07-04 01:24:00,
2013-07-03 21:29:00,76.6,73.8,30.07,SSE,158,1.0,3.0,91,0.00,,,0.25,meteohub,2013-07-04 01:29:00,
2013-07-03 21:34:00,76.6,73.8,30.07,ESE,112,2.0,3.0,91,0.00,,,0.25,meteohub,2013-07-04 01:34:00,
2013-07-03 21:39:00,76.6,73.8,30.04,South,180,3.0,6.0,91,0.00,,,0.25,meteohub,2013-07-04 01:39:00,
2013-07-03 21:44:00,76.6,73.8,30.04,SSE,158,3.0,6.0,91,0.00,,,0.25,meteohub,2013-07-04 01:44:00,
2013-07-03 21:49:00,76.6,73.8,30.04,SSW,202,3.0,6.0,91,0.00,,,0.25,meteohub,2013-07-04 01:49:00,
2013-07-03 21:55:00,76.6,74.1,30.10,SSW,202,3.0,5.0,92,0.00,,,0.25,meteohub,2013-07-04 01:55:00,
2013-07-03 22:00:00,76.6,74.5,30.10,SSE,158,4.0,5.0,93,0.00,,,0.25,meteohub,2013-07-04 02:00:00,
2013-07-03 22:05:00,76.8,74.7,30.10,South,180,2.0,6.0,93,0.00,,,0.25,meteohub,2013-07-04 02:05:00,
2013-07-03 22:10:00,76.6,74.5,30.07,SSE,158,3.0,6.0,93,0.04,,,0.29,meteohub,2013-07-04 02:10:00,
2013-07-03 22:15:00,76.6,74.5,30.07,SE,135,3.0,6.0,93,0.04,,,0.29,meteohub,2013-07-04 02:15:00,
2013-07-03 22:21:00,76.6,74.5,30.07,SSW,202,3.0,6.0,93,0.04,,,0.29,meteohub,2013-07-04 02:21:00,
2013-07-03 22:26:00,76.5,74.3,30.07,SSW,202,3.0,6.0,93,0.04,,,0.29,meteohub,2013-07-04 02:26:00,
2013-07-03 22:31:00,76.5,74.3,30.07,SSE,158,1.0,6.0,93,0.04,,,0.29,meteohub,2013-07-04 02:31:00,
2013-07-03 22:36:00,76.5,74.3,30.07,SSE,158,2.0,4.0,93,0.04,,,0.29,meteohub,2013-07-04 02:36:00,
2013-07-03 22:42:00,76.3,74.1,30.07,SSW,202,3.0,4.0,93,0.04,,,0.29,meteohub,2013-07-04 02:42:00,
2013-07-03 22:47:00,76.3,74.1,30.07,SSW,202,0.0,5.0,93,0.04,,,0.29,meteohub,2013-07-04 02:47:00,
2013-07-03 22:52:00,76.1,73.9,30.07,SW,225,3.0,5.0,93,0.04,,,0.29,meteohub,2013-07-04 02:52:00,
2013-07-03 22:57:00,76.1,73.6,30.07,SSE,158,4.0,4.0,92,0.04,,,0.29,meteohub,2013-07-04 02:57:00,
2013-07-03 23:02:00,76.1,73.6,30.07,SSE,158,2.0,4.0,92,0.04,,,0.29,meteohub,2013-07-04 03:02:00,
2013-07-03 23:07:00,76.1,73.9,30.07,SSE,158,5.0,5.0,93,0.00,,,0.29,meteohub,2013-07-04 03:07:00,
2013-07-03 23:13:00,75.9,73.8,30.07,SSW,202,2.0,5.0,93,0.00,,,0.29,meteohub,2013-07-04 03:13:00,
2013-07-03 23:18:00,75.9,73.8,30.07,SW,225,2.0,5.0,93,0.00,,,0.29,meteohub,2013-07-04 03:18:00,
2013-07-03 23:23:00,75.7,73.2,30.10,SSW,202,0.0,5.0,92,0.00,,,0.29,meteohub,2013-07-04 03:23:00,
2013-07-03 23:28:00,75.7,73.2,30.10,SW,225,0.0,4.0,92,0.00,,,0.29,meteohub,2013-07-04 03:28:00,
2013-07-03 23:33:00,75.7,73.2,30.10,SSE,158,0.0,4.0,92,0.00,,,0.29,meteohub,2013-07-04 03:33:00,
2013-07-03 23:39:00,75.7,73.2,30.10,South,180,5.0,5.0,92,0.00,,,0.29,meteohub,2013-07-04 03:39:00,
2013-07-03 23:44:00,75.6,73.0,30.13,South,180,1.0,3.0,92,0.00,,,0.29,meteohub,2013-07-04 03:44:00,
2013-07-03 23:49:00,75.6,73.0,30.13,SSE,158,1.0,5.0,92,0.00,,,0.29,meteohub,2013-07-04 03:49:00,
2013-07-03 23:54:00,75.4,72.9,30.10,SSE,158,1.0,5.0,92,0.00,,,0.29,meteohub,2013-07-04 03:54:00,
2013-07-03 23:59:00,75.4,73.2,30.10,South,180,2.0,3.0,93,0.00,,,0.29,meteohub,2013-07-04 03:59:00,